Location: Eboldshausen
(51.7766°N, 10.0050°E)
Time: 17:23:04
(UTC+00:00)

USA 281 - Pass Details

Date: 15 November 2025
Orbit: 1079 x 1080 km, 106.0° (Epoch: 08 December)

Event Time Altitude Azimuth Distance (km) Brightness Sun altitude
Exits shadow 17:09:17 20° 96° (E) 2,277 4.3 -15.3°
Maximum altitude 17:13:01 35° 45° (NE) 1,671 3.8 -15.8°
Drops below altitude 10° 17:18:51 10° 342° (NNW) 2,932 5.6 -16.7°
Sets 17:21:34 0° 334° (NNW) 3,891 6.4 -17.1°
